EW7837 Weather Reports


time (UTC)temp
C
wind
direction
speed
KPH
gust
KPH
rain 1hr
cm
rain 24hr
cm
rain mn
cm
humidity
%
barometer
mb
20260901113014 18 259 0.0 0.0 0.00 0.00 0.00 90 1010.5
20260901111516 18 259 0.0 0.0 0.00 0.00 0.00 89 1010.4
20260901110013 17 259 0.0 0.0 0.00 0.00 0.00 89 1010.6
20260901104514 18 259 0.0 0.0 0.00 0.00 0.00 89 1010.8
20260901103010 18 259 0.0 0.0 0.00 0.00 0.00 89 1011.1
20260901101508 18 259 0.0 0.0 0.00 0.00 0.00 88 1010.6
20260901100005 18 259 0.0 0.0 0.00 0.00 0.00 89 1010.7
20260901094510 18 259 0.0 0.0 0.00 0.00 0.00 88 1010.6
20260901093002 18 259 0.0 0.0 0.00 0.00 0.00 89 1010.6
20260901091502 18 259 0.0 0.0 0.00 0.00 0.00 89 1011.0
20260901090101 18 259 0.0 0.0 0.00 0.00 0.00 88 1011.0
20260901084557 18 259 0.0 0.0 0.00 0.00 0.00 88 1011.0
20260901083056 18 259 0.0 0.0 0.00 0.00 0.00 88 1010.6
20260901081552 18 259 0.0 0.0 0.00 0.00 0.00 87 1010.7
20260901080051 19 259 0.0 0.0 0.00 0.00 0.00 87 1010.7
20260901074549 19 259 0.0 0.0 0.00 0.00 0.00 87 1010.6
20260901073049 19 259 0.0 0.0 0.00 0.00 0.00 86 1010.7
20260901071545 19 259 0.0 0.0 0.00 0.00 0.00 87 1010.9
20260901070046 20 259 0.0 0.0 0.00 0.00 0.00 87 1010.8
20260901064542 20 259 0.0 0.0 0.00 0.00 0.00 86 1010.6
20260901063052 20 259 0.0 0.0 0.00 0.00 0.00 86 1010.6
20260901061545 20 259 0.0 0.0 0.00 0.00 0.00 86 1010.7
20260901060037 20 259 0.0 0.0 0.00 0.00 0.00 85 1010.7
20260901054536 20 259 0.0 0.0 0.00 0.00 0.00 85 1010.7
20260901053034 20 259 0.0 0.0 0.00 0.00 0.00 85 1010.6
20260901051512 20 259 0.0 0.0 0.00 0.00 0.00 84 1010.5
20260901050011 21 259 0.0 0.0 0.00 0.00 0.00 83 1010.4
20260901044509 21 259 0.0 0.0 0.00 0.00 0.00 82 1010.3
20260901043057 22 259 0.0 0.0 0.00 0.00 0.00 81 1010.2
20260901041550 22 259 0.0 0.0 0.00 0.00 0.00 81 1010.3
20260901040050 22 259 0.0 0.0 0.00 0.00 0.00 82 1010.1
20260901034534 22 259 0.0 0.0 0.00 0.00 0.00 81 1010.0
20260901033029 22 259 0.0 0.0 0.00 0.00 0.00 81 1009.8
20260901031628 22 259 0.0 0.0 0.00 0.00 0.00 80 1009.6
20260901030043 23 259 0.0 0.0 0.00 0.00 0.00 80 1009.4
20260901024518 23 259 0.0 0.0 0.00 0.00 0.00 79 1009.1
20260901023008 23 259 0.0 0.0 0.00 0.00 0.00 78 1009.0
20260901021506 23 259 0.0 0.0 0.00 0.00 0.00 77 1009.0
20260901020005 24 259 0.0 0.0 0.00 0.00 0.00 74 1008.9
20260901014506 25 259 0.0 0.0 0.00 0.00 0.00 73 1008.8
20260901013005 26 259 0.0 0.0 0.00 0.00 0.00 72 1008.8
20260901011502 26 261 0.0 0.0 0.00 0.00 0.00 72 1008.9
20260901010002 26 197 0.0 0.0 0.00 0.00 0.00 71 1008.9
20260901004501 26 254 0.0 0.0 0.00 0.00 0.00 69 1008.9
20260901003005 27 258 0.0 0.0 0.00 0.00 0.00 69 1008.9
20260901001559 27 262 0.0 0.0 0.00 0.00 0.00 68 1009.0
20260901000112 27 258 0.0 0.0 0.00 0.00 0.00 66 1009.0
20260831234603 27 252 0.0 0.0 0.00 0.00 0.00 66 1009.1
20260831233057 27 267 0.0 0.0 0.00 0.00 0.00 65 1009.2
20260831231556 27 259 0.0 0.0 0.00 0.00 0.00 66 1009.2
20260831230054 27 271 0.0 0.0 0.00 0.00 0.00 66 1009.4
20260831224555 27 257 0.0 0.0 0.00 0.00 0.00 68 1009.5
20260831223058 27 196 0.0 0.0 0.00 0.00 0.00 68 1009.7
20260831221550 27 236 0.0 0.0 0.00 0.00 0.00 68 1010.0
20260831220050 27 258 0.0 0.0 0.00 0.00 0.00 69 1009.9
20260831214553 27 274 1.6 0.0 0.00 0.00 0.00 68 1009.7
20260831213056 27 269 0.0 0.0 0.00 0.00 0.00 66 1009.9
20260831211546 27 273 0.0 0.0 0.00 0.00 0.00 67 1010.0
20260831210044 27 264 0.0 0.0 0.00 0.00 0.00 68 1010.1
20260831204544 27 279 1.6 0.0 0.00 0.00 0.00 68 1010.2
20260831203042 27 265 0.0 0.0 0.00 0.00 0.00 69 1010.3
20260831201539 27 246 0.0 0.0 0.00 0.00 0.00 69 1010.2
20260831200039 27 267 0.0 0.0 0.00 0.00 0.00 68 1010.3
20260831194609 27 266 0.0 0.0 0.00 0.00 0.00 69 1010.5
20260831193037 27 264 0.0 0.0 0.00 0.00 0.00 70 1010.5
20260831191534 27 262 0.0 0.0 0.00 0.00 0.00 69 1010.5
20260831190032 27 264 0.0 0.0 0.00 0.00 0.00 69 1010.5
20260831184528 26 274 0.0 0.0 0.00 0.00 0.00 70 1010.5
20260831183027 27 274 0.0 0.0 0.00 0.00 0.00 70 1010.5
20260831181524 27 292 0.0 0.0 0.00 0.00 0.00 70 1010.5
20260831180019 27 252 0.0 0.0 0.00 0.00 0.00 68 1010.3
20260831174524 27 251 0.0 0.0 0.00 0.00 0.00 69 1010.1
20260831173012 27 251 0.0 0.0 0.00 0.00 0.00 69 1010.2
20260831171510 27 251 0.0 0.0 0.00 0.00 0.00 70 1010.1
20260831170039 27 251 0.0 0.0 0.00 0.00 0.00 70 1010.0
20260831164539 26 251 0.0 0.0 0.00 0.00 0.00 72 1010.0
20260831163032 26 251 0.0 0.0 0.00 0.00 0.00 72 1010.0
20260831161520 26 251 0.0 0.0 0.00 0.00 0.00 73 1010.0
20260831160020 26 251 0.0 0.0 0.00 0.00 0.00 74 1010.0
20260831154514 25 251 0.0 0.0 0.00 0.00 0.00 77 1010.1
20260831153010 24 251 0.0 0.0 0.00 0.00 0.00 78 1010.0
20260831151501 23 251 0.0 0.0 0.00 0.00 0.00 81 1010.0
20260831150057 23 251 0.0 0.0 0.00 0.00 0.00 82 1009.8
20260831144554 22 251 0.0 0.0 0.00 0.00 0.00 83 1009.7
20260831143108 22 251 0.0 0.0 0.00 0.00 0.00 84 1009.6
20260831141609 22 251 0.0 0.0 0.00 0.00 0.00 84 1009.5
20260831140047 22 251 0.0 0.0 0.00 0.00 0.00 84 1009.1
20260831134544 22 251 0.0 0.0 0.00 0.00 0.00 83 1008.9
20260831133038 22 251 0.0 0.0 0.00 0.00 0.00 83 1008.8
20260831131537 22 251 0.0 0.0 0.00 0.00 0.00 83 1008.8
20260831130043 22 251 0.0 0.0 0.00 0.00 0.00 83 1008.7
20260831124539 22 251 0.0 0.0 0.00 0.00 0.00 83 1008.7
20260831123034 22 251 0.0 0.0 0.00 0.00 0.00 84 1008.6
20260831121534 22 251 0.0 0.0 0.00 0.00 0.00 84 1008.6
20260831120034 22 251 0.0 0.0 0.00 0.00 0.00 84 1008.5
20260831114536 22 251 0.0 0.0 0.00 0.00 0.00 84 1008.5